Погода в Богдановке

Россия / Забайкальский край     50°00′15″N   118°45′24″E
темп.,
°C
ветер,
м/с
пор.,
м/с
влажн.,
%
обл.,
%
осадки,
мм/ч
давл.,
гПа
погр.,
м
17 апреля, сб
сб1700:00+1з11510 0.0 101610
03:00−1юз22570 0.0 101712
06:00−3юз22660 0.0 101823
09:00+3юз45360 0.0 1017353
12:00+9юз67225 0.0 10141482
15:00+13юз67205 0.0 10101924
18:00+13юз892222 0.0 10091248
21:00+8ююз512325 0.0 1010292
18 апреля, вс
вс1800:00+5ю411441 0.0 1010270
03:00+2ю38550 0.0 1009168
06:00+1ююв22600 0.0 100726
09:00+5ю35452 0.0 1006378
12:00+13юз452894 0.0 1003789
15:00+18ююз372366 0.0 10002200
18:00+18зсз98213 0.0 9992686
21:00+11сз1217190 0.0 1005876
19 апреля, пн
пн1900:00+5ссз814360 0.0 10111077
03:00+1ссз712270 0.0 10171113
06:00−2ссз59230 0.0 1021674
09:00−1ссз69170 0.0 10231068
12:00+3ссз57100 0.0 10221421
15:00+7ссз4670 0.0 10192104
18:00+7зсз4680 0.0 10182400
21:00+4юз34150 0.0 101961
20 апреля, вт
вт2000:00+2зюз34210 0.0 101966
03:000юз22255 0.0 101811
06:00−1ю22244 0.0 101715
09:00+6ююз510199 0.0 1015514
12:00+14юз810175 0.0 10111033
15:00+17юз79160 0.0 10081252
18:00+18ююз7917100 0.0 10061155
21:00+13ю382492 0.0 1007111
21 апреля, ср
ср2100:00+11ююз223293 0.0 100817
03:00+9юв11355 0.0 100810
06:00+7ююв114032 0.0 100910
09:00+13вюв232970 0.0 1008239
12:00+21ю6818100 0.0 10051043
15:00+24ю81115100 0.0 10021978
18:00+23ююз61021100 0.0 10011612
21:00+19ю61334100 0.0 1002332